Date String (YYYY-MM-DD hh:mm:ss) UTC,Instrument flags,Ambient pressure (hPa),Sample flow (lpm),Bypass flow (lpm),Sample temperature (°C),Ambient temperature (°C),ASC tube jacket temperature (°C),LED temperature (°C),Box temperature (°C),Sample RH (%),Span deviation,Mass concentration (μg/m³),Mass concentration (μg/m³),Mass concentration (μg/m³)
DateTimeUTC,F1_M11,P_M11,Q1_M11,Q2_M11,T1_M11,T2_M11,T3_M11,T4_M11,T5_M11,U1_M11,ZSPAN_M11,X0_M11,X2_M11,X1_M11
2021-09-21 19:00:00,,0839.8,4.99,0.00,29.2,28.5,00.0,38.3,31.0,12.3,0000.0,0005.74,0002.33,0001.94
2021-09-21 19:01:00,,0839.8,5.00,0.00,29.2,28.6,00.0,38.3,31.0,12.1,0000.0,0005.07,0002.30,0001.92
2021-09-21 19:02:00,,0839.7,5.02,0.00,29.3,28.6,00.0,38.3,31.0,12.3,0000.0,0004.93,0002.27,0001.90
2021-09-21 19:03:00,,0839.7,4.99,0.00,29.3,28.6,00.0,38.3,31.1,12.5,0000.0,0004.90,0002.26,0001.90
2021-09-21 19:04:00,,0839.7,4.99,0.00,29.3,28.6,00.0,38.3,31.1,12.3,0000.0,0005.03,0002.25,0001.91
2021-09-21 19:05:00,,0839.7,5.01,0.00,29.3,28.6,00.0,38.3,31.1,12.3,0000.0,0005.79,0002.26,0001.89
2021-09-21 19:06:00,,0839.7,5.00,0.00,29.3,28.7,00.0,38.3,31.1,12.3,0000.0,0005.70,0002.25,0001.89
2021-09-21 19:07:00,,0839.6,5.00,0.00,29.3,28.7,00.0,38.4,31.1,11.9,0000.0,0004.36,0002.27,0001.90
2021-09-21 19:08:00,,0839.7,5.00,0.00,29.3,28.7,00.0,38.4,31.1,11.9,0000.0,0004.29,0002.22,0001.89
2021-09-21 19:09:00,,0839.7,4.98,0.00,29.3,28.7,00.0,38.4,31.1,12.0,0000.0,0004.19,0002.17,0001.88
2021-09-21 19:10:00,,0839.6,5.01,0.00,29.3,28.7,00.0,38.4,31.1,12.1,0000.0,0004.22,0002.19,0001.89
2021-09-21 19:11:00,,0839.6,5.00,0.00,29.3,28.7,00.0,38.4,31.1,12.3,0000.0,0004.13,0002.17,0001.90
2021-09-21 19:12:00,,0839.7,5.01,0.00,29.4,28.7,00.0,38.4,31.1,12.3,0000.0,0004.13,0002.19,0001.92
2021-09-21 19:13:00,,0839.7,5.00,0.00,29.3,28.6,00.0,38.4,31.1,12.2,0000.0,0004.21,0002.22,0001.93
2021-09-21 19:14:00,,0839.6,5.00,0.00,29.3,28.6,00.0,38.4,31.0,12.1,0000.0,0004.33,0002.25,0001.95
2021-09-21 19:15:00,,0839.6,4.99,0.00,29.3,28.6,00.0,38.4,31.0,12.0,0000.0,0004.32,0002.29,0001.99
2021-09-21 19:16:00,,0839.6,5.00,0.00,29.3,28.6,00.0,38.4,31.0,12.1,0000.0,0003.84,0002.35,0002.05
2021-09-21 19:17:00,,0839.5,5.00,0.00,29.3,28.6,00.0,38.4,31.0,12.2,0000.0,0004.03,0002.42,0002.10
2021-09-21 19:18:00,,0839.5,5.00,0.00,29.3,28.6,00.0,38.4,31.1,12.3,0000.0,0004.12,0002.47,0002.14
2021-09-21 19:19:00,,0839.5,5.00,0.00,29.4,28.7,00.0,38.4,31.1,12.5,0000.0,0004.14,0002.52,0002.18
2021-09-21 19:20:00,,0839.5,5.01,0.00,29.4,28.7,00.0,38.4,31.1,12.9,0000.0,0005.49,0002.58,0002.22
2021-09-21 19:21:00,,0839.6,4.99,0.00,29.4,28.8,00.0,38.4,31.2,13.0,0000.0,0006.48,0002.62,0002.25
2021-09-21 19:22:00,,0839.5,4.99,0.00,29.4,28.8,00.0,38.5,31.2,12.8,0000.0,0006.53,0002.67,0002.29
2021-09-21 19:23:00,,0839.5,5.01,0.00,29.4,28.8,00.0,38.5,31.2,12.7,0000.0,0006.83,0002.71,0002.32
2021-09-21 19:24:00,,0839.5,5.00,0.00,29.4,28.8,00.0,38.5,31.2,12.8,0000.0,0007.09,0002.77,0002.37
2021-09-21 19:25:00,,0839.5,5.00,0.00,29.5,28.8,00.0,38.5,31.2,12.7,0000.0,0007.25,0002.82,0002.42
2021-09-21 19:26:00,,0839.4,5.00,0.00,29.5,28.8,00.0,38.5,31.2,12.7,0000.0,0007.90,0002.88,0002.46
2021-09-21 19:27:00,,0839.4,5.00,0.00,29.4,28.8,00.0,38.5,31.2,12.7,0000.0,0008.51,0002.94,0002.50
2021-09-21 19:28:00,,0839.3,5.01,0.00,29.4,28.8,00.0,38.5,31.2,12.9,0000.0,0008.47,0002.91,0002.50
2021-09-21 19:29:00,,0839.3,4.99,0.00,29.5,28.8,00.0,38.5,31.2,13.1,0000.0,0008.46,0002.92,0002.50
2021-09-21 19:30:00,,0839.3,4.99,0.00,29.5,28.8,00.0,38.5,31.2,13.1,0000.0,0008.78,0002.95,0002.52
2021-09-21 19:31:00,,0839.3,5.00,0.00,29.5,28.8,00.0,38.5,31.2,13.0,0000.0,0008.48,0003.00,0002.55
2021-09-21 19:32:00,,0839.2,4.99,0.00,29.5,28.8,00.0,38.5,31.2,12.8,0000.0,0008.15,0003.08,0002.57
2021-09-21 19:33:00,,0839.2,4.99,0.00,29.5,28.8,00.0,38.5,31.2,12.7,0000.0,0008.19,0003.12,0002.58
2021-09-21 19:34:00,,0839.3,5.01,0.00,29.5,28.8,00.0,38.6,31.3,12.7,0000.0,0008.04,0003.11,0002.56
2021-09-21 19:35:00,,0839.3,4.99,0.00,29.5,28.9,00.0,38.6,31.3,12.9,0000.0,0007.95,0003.07,0002.53
2021-09-21 19:36:00,,0839.3,5.00,0.00,29.5,28.9,00.0,38.6,31.3,12.3,0000.0,0008.17,0003.05,0002.49
2021-09-21 19:37:00,,0839.3,5.01,0.00,29.5,28.9,00.0,38.6,31.3,12.1,0000.0,0007.68,0003.02,0002.44
2021-09-21 19:38:00,,0839.3,4.99,0.00,29.5,28.9,00.0,38.6,31.3,12.3,0000.0,0006.69,0002.95,0002.42
2021-09-21 19:39:00,,0839.2,5.01,0.00,29.5,28.9,00.0,38.6,31.3,12.2,0000.0,0006.44,0002.94,0002.41
2021-09-21 19:40:00,,0839.2,4.99,0.00,29.5,28.9,00.0,38.6,31.3,12.3,0000.0,0007.21,0002.94,0002.42
2021-09-21 19:41:00,,0839.2,5.00,0.00,29.6,28.9,00.0,38.6,31.3,12.4,0000.0,0006.55,0002.91,0002.40
2021-09-21 19:42:00,,0839.0,5.00,0.00,29.6,28.9,00.0,38.6,31.3,12.5,0000.0,0005.80,0002.87,0002.40
2021-09-21 19:43:00,,0839.1,5.00,0.00,29.6,29.0,00.0,38.6,31.3,12.6,0000.0,0007.21,0002.78,0002.38
2021-09-21 19:44:00,,0839.1,5.02,0.00,29.6,29.0,00.0,38.7,31.4,12.5,0000.0,0008.30,0002.75,0002.39
2021-09-21 19:45:00,,0839.0,4.99,0.00,29.6,29.0,00.0,38.7,31.4,12.5,0000.0,0009.15,0002.75,0002.41
2021-09-21 19:46:00,,0839.0,5.00,0.00,29.7,29.0,00.0,38.7,31.4,12.4,0000.0,0009.32,0002.79,0002.42
2021-09-21 19:47:00,,0839.0,5.01,0.00,29.7,29.1,00.0,38.7,31.4,12.3,0000.0,0008.90,0002.76,0002.43
2021-09-21 19:48:00,,0839.0,5.00,0.00,29.7,29.1,00.0,38.7,31.5,12.4,0000.0,0008.86,0002.75,0002.42
2021-09-21 19:49:00,,0839.0,4.99,0.00,29.8,29.2,00.0,38.7,31.5,12.5,0000.0,0008.95,0002.75,0002.39
2021-09-21 19:50:00,,0838.9,4.99,0.00,29.8,29.2,00.0,38.7,31.6,12.5,0000.0,0009.20,0002.72,0002.36
2021-09-21 19:51:00,,0838.9,5.00,0.00,29.8,29.3,00.0,38.8,31.6,12.4,0000.0,0009.32,0002.67,0002.32
2021-09-21 19:52:00,,0838.9,5.02,0.00,29.8,29.3,00.0,38.8,31.6,12.4,0000.0,0009.58,0002.64,0002.29
2021-09-21 19:53:00,,0838.9,4.99,0.00,29.9,29.3,00.0,38.8,31.7,12.3,0000.0,0009.67,0002.62,0002.26
2021-09-21 19:54:00,,0838.9,5.01,0.00,29.9,29.3,00.0,38.8,31.7,12.1,0000.0,0008.44,0002.61,0002.22
2021-09-21 19:55:00,,0838.9,5.01,0.00,29.9,29.4,00.0,38.9,31.7,12.2,0000.0,0007.53,0002.55,0002.16
2021-09-21 19:56:00,,0838.9,4.99,0.00,30.0,29.4,00.0,38.9,31.7,12.5,0000.0,0006.40,0002.55,0002.11
2021-09-21 19:57:00,,0838.8,4.99,0.00,30.0,29.4,00.0,38.9,31.7,12.8,0000.0,0006.41,0002.58,0002.11
2021-09-21 19:58:00,,0838.7,5.02,0.00,30.0,29.3,00.0,38.9,31.8,12.5,0000.0,0006.70,0002.62,0002.13
2021-09-21 19:59:00,,0838.8,4.99,0.00,30.0,29.3,00.0,38.9,31.8,12.4,0000.0,0007.23,0002.66,0002.13
